Find Starlink 33719

NORAD ID: 63578 Int'l Des: 2025-076 Owner: SPXS Country: US Constellation: starlink operational
LEOCIRCULAR

当前视图

正在加载3D地球...

关于 Starlink 33719

正在加载描述...

即将过境

Passes for default location (London). Set your location on the main map for personalized predictions.

高度历史

Loading altitude history...

两行轨道根数

1 63578U 25076K 26150.24229124 .00021222 00000-0 77822-3 0 9997
2 63578 42.9978 221.0563 0001106 198.8119 161.2692 15.27592025 64302
Epoch: May 30, 2026 • Age: 24 hours

当前状态

高度 484.4 km
速度 7.63 km/s
星下点 31.48°N, 76.05°W
发射日期 Apr 14, 2025
运行时间 1.1 years
类型 internet

技术详情

分类 Payload
质量 575.00 kg
干质量 530.00 kg
总质量 575.00 kg
长度 0.30 m
直径 4.10 m
跨度 29.00 m
形状 Box + pan
制造商 SPXS
平台类型 Starlink V2MO
阶段状态 In Orbit
所有者/国家 SPXS/US

Most Searched